TEMPEST-D

Last updated on Wed Jun 23 2021 00:02:09 GMT+0000 (Coordinated Universal Time)

1 43547U 98067NV 21172.16341817 .12719577 12534-4 48743-3 0 9994 2 43547 51.6127 217.4511 0003370 292.8028 67.2644 16.44063265167608

Satellite not in orbit

TEMPEST-D